﻿_id,日時,平均風速(m/s),平均風向,最大瞬間風速(m/s),最大風速時風向,気温(℃),湿度(%),10分間移動積算雨量(mm),1時間移動積算雨量(mm),日雨量(mm),累計雨量(mm)
1,2022-07-18T00:00:00,0.6,北東,1.4,北東,23.1,99.1,0,0,6,6
2,2022-07-18T00:01:00,0.6,北東,1.4,北東,23.1,99.2,0,0,0,6
3,2022-07-18T00:02:00,0.5,北東,1.4,北東,23,99.2,0,0,0,6
4,2022-07-18T00:03:00,0.5,北東,1.4,北東,23.2,99.2,0,0,0,6
5,2022-07-18T00:04:00,0.5,北北東,1.4,北東,23.2,99.2,0,0,0,6
6,2022-07-18T00:05:00,0.4,北北東,1.4,北東,23,99.2,0,0,0,6
7,2022-07-18T00:06:00,0.3,北,1.2,北東,23,99.1,0,0,0,6
8,2022-07-18T00:07:00,0.2,静穏,1.1,北北東,22.9,99.1,0,0,0,6
9,2022-07-18T00:08:00,0.2,静穏,1.1,北北東,22.9,99.1,0,0,0,6
10,2022-07-18T00:09:00,0.1,静穏,0.6,北,23,99.2,0,0,0,6
11,2022-07-18T00:10:00,0.1,静穏,0.4,東,23.1,99.3,0,0,0,6
12,2022-07-18T00:11:00,0.1,静穏,0.5,東南東,23.2,99.3,0,0,0,6
13,2022-07-18T00:12:00,0.1,静穏,0.5,東南東,23.3,99.3,0,0,0,6
14,2022-07-18T00:13:00,0.2,静穏,0.5,東南東,23.3,99.3,0,0,0,6
15,2022-07-18T00:14:00,0.2,静穏,0.7,東,23.2,99.3,0,0,0,6
16,2022-07-18T00:15:00,0.3,東北東,0.7,東,23.3,99.3,0,0,0,6
17,2022-07-18T00:16:00,0.3,東北東,0.7,東,23.2,99.2,0,0,0,6
18,2022-07-18T00:17:00,0.4,東,0.7,東,23.3,99.2,0,0,0,6
19,2022-07-18T00:18:00,0.4,東,0.7,東,23.3,99.2,0,0,0,6
20,2022-07-18T00:19:00,0.5,東,0.7,東,23.1,99.2,0,0,0,6
21,2022-07-18T00:20:00,0.5,東,0.7,東,23.1,99.2,0,0,0,6
22,2022-07-18T00:21:00,0.4,東,0.7,東,23.1,99.2,0,0,0,6
23,2022-07-18T00:22:00,0.4,東,0.7,東,23,99.1,0,0,0,6
24,2022-07-18T00:23:00,0.4,東北東,0.8,北東,23.1,99.2,0,0,0,6
25,2022-07-18T00:24:00,0.4,東北東,0.8,北東,23.2,99.2,0,0,0,6
26,2022-07-18T00:25:00,0.4,東北東,0.8,北東,23.2,99.2,0,0,0,6
27,2022-07-18T00:26:00,0.4,東北東,0.8,北東,23.3,99.3,0,0,0,6
28,2022-07-18T00:27:00,0.4,東北東,0.8,北東,23.3,99.3,0,0,0,6
29,2022-07-18T00:28:00,0.4,東北東,0.8,北東,23.2,99.3,0,0,0,6
30,2022-07-18T00:29:00,0.4,東北東,0.8,北東,23.3,99.2,0,0,0,6
31,2022-07-18T00:30:00,0.4,東北東,0.8,北東,23.3,99.2,0,0,0,6
32,2022-07-18T00:31:00,0.4,北東,0.8,北東,23.3,99.2,0,0,0,6
33,2022-07-18T00:32:00,0.4,北東,0.9,北,23.2,99.2,0,0,0,6
34,2022-07-18T00:33:00,0.4,北東,0.9,北,23.1,99.1,0,0,0,6
35,2022-07-18T00:34:00,0.3,北東,0.9,北,23.2,99.2,0,0,0,6
36,2022-07-18T00:35:00,0.3,北北東,0.9,北,23.2,99.2,0,0,0,6
37,2022-07-18T00:36:00,0.4,北北東,1.3,北北東,23,99.2,0,0,0,6
38,2022-07-18T00:37:00,0.4,北北東,1.3,北北東,23,99.1,0,0,0,6
39,2022-07-18T00:38:00,0.5,北北東,1.3,北北東,23,99.2,0,0,0,6
40,2022-07-18T00:39:00,0.5,北北東,1.3,北北東,23.1,99.2,0,0,0,6
41,2022-07-18T00:40:00,0.6,北北東,1.4,北東,23.1,99.2,0,0,0,6
42,2022-07-18T00:41:00,0.7,北北東,1.4,北東,23,99.2,0,0,0,6
43,2022-07-18T00:42:00,0.7,北北東,1.4,北東,23,99.2,0,0,0,6
44,2022-07-18T00:43:00,0.8,北北東,1.4,北東,23,99.2,0,0,0,6
45,2022-07-18T00:44:00,0.8,北北東,1.4,北東,23,99.2,0,0,0,6
46,2022-07-18T00:45:00,0.9,北北東,1.4,北東,23,99.2,0,0,0,6
47,2022-07-18T00:46:00,0.8,北東,1.4,北東,23.1,99.3,0,0,0,6
48,2022-07-18T00:47:00,0.7,北東,1.4,北東,23.1,99.3,0,0,0,6
49,2022-07-18T00:48:00,0.7,北東,1.4,北東,23.2,99.3,0,0,0,6
50,2022-07-18T00:49:00,0.6,北東,1.4,北東,23.2,99.3,0,0,0,6
51,2022-07-18T00:50:00,0.6,北東,1.4,北東,23.2,99.3,0,0,0,6
52,2022-07-18T00:51:00,0.5,北東,1.3,北北東,23.2,99.3,0,0,0,6
53,2022-07-18T00:52:00,0.4,北東,1.1,北北東,23.2,99.3,0,0,0,6
54,2022-07-18T00:53:00,0.4,東北東,1,北北東,23,99.2,0,0,0,6
55,2022-07-18T00:54:00,0.3,東北東,0.7,東,23,99.2,0,0,0,6
56,2022-07-18T00:55:00,0.3,東,0.7,東,23.1,99.2,0,0,0,6
57,2022-07-18T00:56:00,0.3,東,0.7,東,23.1,99.2,0,0,0,6
58,2022-07-18T00:57:00,0.4,東,0.7,東,23.2,99.2,0,0,0,6
59,2022-07-18T00:58:00,0.4,東南東,0.7,東,23.1,99.3,0,0,0,6
60,2022-07-18T00:59:00,0.4,東南東,0.7,東,23.1,99.2,0,0,0,6
61,2022-07-18T01:00:00,0.3,南東,0.7,南東,23,99.2,0,0,0,6
62,2022-07-18T01:01:00,0.3,南東,0.7,南東,23,99.2,0,0,0,6
63,2022-07-18T01:02:00,0.3,東南東,0.7,南東,23.1,99.2,0,0,0,6
64,2022-07-18T01:03:00,0.3,東南東,0.7,南東,23.1,99.2,0,0,0,6
65,2022-07-18T01:04:00,0.4,東南東,0.7,南東,23.2,99.3,0,0,0,6
66,2022-07-18T01:05:00,0.4,東南東,0.7,南東,23.2,99.3,0,0,0,6
67,2022-07-18T01:06:00,0.4,東,0.7,南東,23.2,99.3,0,0,0,6
68,2022-07-18T01:07:00,0.4,東,0.9,東北東,23.2,99.3,0,0,0,6
69,2022-07-18T01:08:00,0.4,東,0.9,東北東,23.2,99.3,0,0,0,6
70,2022-07-18T01:09:00,0.4,東,0.9,東北東,23.2,99.3,0,0,0,6
71,2022-07-18T01:10:00,0.5,東北東,0.9,東北東,23.2,99.3,0,0,0,6
72,2022-07-18T01:11:00,0.5,東北東,0.9,東北東,23.2,99.2,0,0,0,6
73,2022-07-18T01:12:00,0.5,東北東,0.9,東北東,23.2,99.2,0,0,0,6
74,2022-07-18T01:13:00,0.5,東北東,0.9,東北東,23.2,99.2,0,0,0,6
75,2022-07-18T01:14:00,0.5,東北東,0.9,東北東,23.2,99.2,0,0,0,6
76,2022-07-18T01:15:00,0.5,北東,0.9,東北東,23.1,99.2,0,0,0,6
77,2022-07-18T01:16:00,0.4,北東,0.9,東北東,23,99.2,0,0,0,6
78,2022-07-18T01:17:00,0.4,北東,0.9,東北東,23.1,99.2,0,0,0,6
79,2022-07-18T01:18:00,0.3,北北東,0.9,東北東,23,99.2,0,0,0,6
80,2022-07-18T01:19:00,0.3,北北東,0.9,東北東,23.1,99.2,0,0,0,6
81,2022-07-18T01:20:00,0.2,静穏,0.5,北北東,23.2,99.3,0,0,0,6
82,2022-07-18T01:21:00,0.2,静穏,0.5,北北東,23.2,99.3,0,0,0,6
83,2022-07-18T01:22:00,0.2,静穏,0.5,北北東,23.1,99.3,0,0,0,6
84,2022-07-18T01:23:00,0.2,静穏,0.5,北北東,23.2,99.3,0,0,0,6
85,2022-07-18T01:24:00,0.2,静穏,0.5,東南東,23.3,99.3,0,0,0,6
86,2022-07-18T01:25:00,0.2,静穏,0.5,東南東,23.2,99.3,0,0,0,6
87,2022-07-18T01:26:00,0.2,静穏,0.5,東南東,23.2,99.3,0,0,0,6
88,2022-07-18T01:27:00,0.2,静穏,0.5,東南東,23.2,99.2,0,0,0,6
89,2022-07-18T01:28:00,0.2,静穏,0.5,東南東,23.1,99.2,0,0,0,6
90,2022-07-18T01:29:00,0.2,静穏,0.5,東南東,23.2,99.3,0,0,0,6
91,2022-07-18T01:30:00,0.2,静穏,0.5,東南東,23.2,99.3,0,0,0,6
92,2022-07-18T01:31:00,0.2,静穏,0.5,東南東,23.3,99.3,0,0,0,6
93,2022-07-18T01:32:00,0.2,静穏,0.5,南南東,23.2,99.3,0,0,0,6
94,2022-07-18T01:33:00,0.2,静穏,0.5,南南東,23.2,99.3,0,0,0,6
95,2022-07-18T01:34:00,0.1,静穏,0.5,南南東,23.1,99.2,0,0,0,6
96,2022-07-18T01:35:00,0.1,静穏,0.5,南南東,23.1,99.2,0,0,0,6
97,2022-07-18T01:36:00,0.2,静穏,0.7,南西,23,99.2,0,0,0,6
98,2022-07-18T01:37:00,0.2,静穏,0.7,南西,23,99.2,0,0,0,6
99,2022-07-18T01:38:00,0.2,静穏,0.7,南西,23,99.2,0,0,0,6
100,2022-07-18T01:39:00,0.3,南,0.7,南西,23.1,99.2,0,0,0,6
101,2022-07-18T01:40:00,0.3,南,0.7,南西,23.1,99.3,0,0,0,6
102,2022-07-18T01:41:00,0.3,南南西,0.7,南西,23.1,99.3,0,0,0,6
103,2022-07-18T01:42:00,0.3,南,0.7,南西,23,99.3,0,0,0,6
104,2022-07-18T01:43:00,0.4,南,0.9,南東,23.1,99.3,0,0,0,6
105,2022-07-18T01:44:00,0.4,南,0.9,南東,23.2,99.3,0,0,0,6
106,2022-07-18T01:45:00,0.4,南,0.9,南東,23.2,99.3,0,0,0,6
107,2022-07-18T01:46:00,0.4,南,0.9,南東,23.1,99.3,0,0,0,6
108,2022-07-18T01:47:00,0.3,南南東,0.9,南東,23,99.3,0,0,0,6
109,2022-07-18T01:48:00,0.3,南南東,0.9,南東,23,99.2,0,0,0,6
110,2022-07-18T01:49:00,0.3,南,0.9,南東,22.9,99.2,0,0,0,6
111,2022-07-18T01:50:00,0.3,南,0.9,南東,22.9,99.2,0,0,0,6
112,2022-07-18T01:51:00,0.4,南,0.9,南東,23,99.3,0,0,0,6
113,2022-07-18T01:52:00,0.4,南,0.9,南東,22.9,99.3,0,0,0,6
114,2022-07-18T01:53:00,0.4,南南西,0.8,南西,23,99.2,0,0,0,6
115,2022-07-18T01:54:00,0.4,南南西,0.8,南西,23,99.3,0,0,0,6
116,2022-07-18T01:55:00,0.5,南南西,0.9,南西,22.9,99.3,0,0,0,6
117,2022-07-18T01:56:00,0.5,南南西,0.9,南西,22.9,99.3,0,0,0,6
118,2022-07-18T01:57:00,0.5,南西,0.9,南西,22.9,99.3,0,0,0,6
119,2022-07-18T01:58:00,0.5,南西,0.9,南西,22.9,99.3,0,0,0,6
120,2022-07-18T01:59:00,0.5,南西,0.9,南西,22.9,99.3,0,0,0,6
121,2022-07-18T02:00:00,0.5,南西,0.9,南西,22.9,99.3,0,0,0,6
122,2022-07-18T02:01:00,0.5,南南西,0.9,南西,22.9,99.3,0,0,0,6
123,2022-07-18T02:02:00,0.5,南南西,0.9,南西,23,99.3,0,0,0,6
124,2022-07-18T02:03:00,0.5,南南西,0.9,南西,23.1,99.4,0,0,0,6
125,2022-07-18T02:04:00,0.4,南,0.9,南西,23,99.4,0,0,0,6
126,2022-07-18T02:05:00,0.4,南,0.8,南,22.9,99.3,0,0,0,6
127,2022-07-18T02:06:00,0.4,南,0.8,南,23,99.3,0,0,0,6
128,2022-07-18T02:07:00,0.4,南南東,0.8,南,22.9,99.3,0,0,0,6
129,2022-07-18T02:08:00,0.4,南南東,0.8,南,23.1,99.3,0,0,0,6
130,2022-07-18T02:09:00,0.4,南東,0.8,南,22.9,99.3,0,0,0,6
131,2022-07-18T02:10:00,0.4,南東,0.9,東,22.8,99.3,0,0,0,6
132,2022-07-18T02:11:00,0.4,東南東,0.9,東,22.8,99.2,0,0,0,6
133,2022-07-18T02:12:00,0.5,東南東,0.9,東,22.9,99.3,0,0,0,6
134,2022-07-18T02:13:00,0.4,東南東,0.9,東,22.8,99.3,0,0,0,6
135,2022-07-18T02:14:00,0.5,東,1,東北東,22.8,99.3,0,0,0,6
136,2022-07-18T02:15:00,0.5,東,1,東北東,22.9,99.3,0,0,0,6
137,2022-07-18T02:16:00,0.5,東,1,東北東,23,99.3,0,0,0,6
138,2022-07-18T02:17:00,0.4,東,1,東北東,22.9,99.3,0,0,0,6
139,2022-07-18T02:18:00,0.4,東,1,東北東,22.8,99.3,0,0,0,6
140,2022-07-18T02:19:00,0.4,東,1,東北東,22.8,99.2,0,0,0,6
141,2022-07-18T02:20:00,0.3,東,1,東北東,22.9,99.3,0,0,0,6
142,2022-07-18T02:21:00,0.3,東,1,東北東,22.9,99.3,0,0,0,6
143,2022-07-18T02:22:00,0.3,東南東,1,東北東,22.9,99.3,0,0,0,6
144,2022-07-18T02:23:00,0.3,東南東,1,東北東,22.9,99.3,0,0,0,6
145,2022-07-18T02:24:00,0.3,南東,0.7,南東,22.9,99.3,0,0,0,6
146,2022-07-18T02:25:00,0.3,南東,0.7,南東,22.8,99.3,0,0,0,6
147,2022-07-18T02:26:00,0.3,南南東,0.7,南東,22.7,99.2,0,0,0,6
148,2022-07-18T02:27:00,0.4,南南東,0.7,南東,22.8,99.2,0,0,0,6
149,2022-07-18T02:28:00,0.4,南南東,0.7,南東,22.9,99.3,0,0,0,6
150,2022-07-18T02:29:00,0.4,南南東,0.7,南東,22.8,99.3,0,0,0,6
151,2022-07-18T02:30:00,0.4,南南東,0.7,南東,22.7,99.3,0,0,0,6
152,2022-07-18T02:31:00,0.4,南南東,0.7,南東,22.8,99.3,0,0,0,6
153,2022-07-18T02:32:00,0.4,南東,0.7,南東,22.9,99.3,0,0,0,6
154,2022-07-18T02:33:00,0.4,南東,0.7,南,22.9,99.3,0,0,0,6
155,2022-07-18T02:34:00,0.3,南東,0.7,南,22.8,99.2,0,0,0,6
156,2022-07-18T02:35:00,0.3,南東,0.7,南,22.8,99.2,0,0,0,6
157,2022-07-18T02:36:00,0.3,南東,0.6,東北東,22.6,99.2,0,0,0,6
158,2022-07-18T02:37:00,0.3,南東,0.6,東北東,22.6,99.2,0,0,0,6
159,2022-07-18T02:38:00,0.3,南南東,0.6,東北東,22.7,99.2,0,0,0,6
160,2022-07-18T02:39:00,0.2,静穏,0.6,東北東,22.8,99.2,0,0,0,6
161,2022-07-18T02:40:00,0.2,静穏,0.6,東北東,22.9,99.3,0,0,0,6
162,2022-07-18T02:41:00,0.2,静穏,0.9,南西,22.8,99.3,0,0,0,6
163,2022-07-18T02:42:00,0.1,静穏,0.9,南西,22.8,99.3,0,0,0,6
164,2022-07-18T02:43:00,0.2,静穏,0.9,南西,22.9,99.3,0,0,0,6
165,2022-07-18T02:44:00,0.2,静穏,0.9,南西,22.9,99.3,0,0,0,6
166,2022-07-18T02:45:00,0.2,静穏,0.9,南西,22.9,99.3,0,0,0,6
167,2022-07-18T02:46:00,0.2,静穏,0.9,南西,22.9,99.3,0,0,0,6
168,2022-07-18T02:47:00,0.3,南西,1.1,西,22.8,99.3,0,0,0,6
169,2022-07-18T02:48:00,0.3,南西,1.1,西,22.8,99.2,0,0,0,6
170,2022-07-18T02:49:00,0.3,西南西,1.1,西,22.9,99.3,0,0,0,6
171,2022-07-18T02:50:00,0.3,西南西,1.1,西,22.8,99.3,0,0,0,6
172,2022-07-18T02:51:00,0.4,西,1.1,西,22.9,99.3,0,0,0,6
173,2022-07-18T02:52:00,0.4,西,1.1,西,22.8,99.3,0,0,0,6
174,2022-07-18T02:53:00,0.4,西北西,1.1,西,22.9,99.3,0,0,0,6
175,2022-07-18T02:54:00,0.5,北西,1.1,西,22.9,99.3,0,0,0,6
176,2022-07-18T02:55:00,0.5,北北西,1.1,西,22.9,99.3,0,0,0,6
177,2022-07-18T02:56:00,0.5,北北西,1.1,西,22.8,99.3,0,0,0,6
178,2022-07-18T02:57:00,0.5,北北西,0.9,北,22.9,99.3,0,0,0,6
179,2022-07-18T02:58:00,0.5,北,0.9,北,22.8,99.2,0,0,0,6
180,2022-07-18T02:59:00,0.5,北,0.9,北,22.8,99.2,0,0,0,6
181,2022-07-18T03:00:00,0.6,北,1,北北東,22.8,99.3,0,0,0,6
182,2022-07-18T03:01:00,0.6,北,1.6,北北東,22.8,99.3,0,0,0,6
183,2022-07-18T03:02:00,0.7,北,1.6,北北東,22.8,99.3,0,0,0,6
184,2022-07-18T03:03:00,0.7,北,1.6,北北東,22.8,99.3,0,0,0,6
185,2022-07-18T03:04:00,0.8,北,1.8,北北東,22.8,99.3,0,0,0,6
186,2022-07-18T03:05:00,0.9,北北東,1.8,北北東,22.7,99.2,0,0,0,6
187,2022-07-18T03:06:00,0.9,北北東,1.8,北北東,22.7,99.2,0,0,0,6
188,2022-07-18T03:07:00,1,北北東,1.8,北北東,22.8,99.2,0,0,0,6
189,2022-07-18T03:08:00,1.1,北北東,1.8,北北東,22.8,99.3,0,0,0,6
190,2022-07-18T03:09:00,1.1,北東,1.8,北北東,22.8,99.3,0,0,0,6
191,2022-07-18T03:10:00,1.1,北東,1.8,北北東,22.9,99.3,0,0,0,6
192,2022-07-18T03:11:00,1,北東,1.8,北北東,22.9,99.3,0,0,0,6
193,2022-07-18T03:12:00,1,北東,1.8,北北東,22.9,99.3,0,0,0,6
194,2022-07-18T03:13:00,1,北東,1.8,北北東,23,99.3,0,0,0,6
195,2022-07-18T03:14:00,0.9,北東,1.8,北北東,22.9,99.3,0,0,0,6
196,2022-07-18T03:15:00,0.8,北東,1.6,北東,23,99.3,0,0,0,6
197,2022-07-18T03:16:00,0.7,東北東,1.6,北東,23,99.3,0,0,0,6
198,2022-07-18T03:17:00,0.6,東北東,1.5,北東,23,99.3,0,0,0,6
199,2022-07-18T03:18:00,0.6,東北東,1.1,北東,22.9,99.2,0,0,0,6
200,2022-07-18T03:19:00,0.5,東北東,1.1,北東,23,99.2,0,0,0,6
201,2022-07-18T03:20:00,0.5,東北東,1.1,北東,23,99.2,0,0,0,6
202,2022-07-18T03:21:00,0.5,東北東,1.1,北東,22.9,99.2,0,0,0,6
203,2022-07-18T03:22:00,0.4,東北東,0.9,東,22.9,99.2,0,0,0,6
204,2022-07-18T03:23:00,0.4,東北東,0.9,東,22.9,99.2,0,0,0,6
205,2022-07-18T03:24:00,0.4,北東,0.9,東,22.9,99.2,0,0,0,6
206,2022-07-18T03:25:00,0.4,北東,0.9,東,22.9,99.2,0,0,0,6
207,2022-07-18T03:26:00,0.4,北東,0.8,北東,22.9,99.2,0,0,0,6
208,2022-07-18T03:27:00,0.4,北東,0.9,東北東,22.9,99.2,0,0,0,6
209,2022-07-18T03:28:00,0.4,北東,1.1,東北東,23,99.2,0,0,0,6
210,2022-07-18T03:29:00,0.5,北東,1.2,東北東,23,99.2,0,0,0,6
211,2022-07-18T03:30:00,0.6,北東,1.2,東北東,23,99.2,0,0,0,6
212,2022-07-18T03:31:00,0.7,北東,1.2,東北東,23,99.2,0,0,0,6
213,2022-07-18T03:32:00,0.7,東北東,1.2,東北東,22.9,99.2,0,0,0,6
214,2022-07-18T03:33:00,0.7,東北東,1.2,東北東,22.9,99.2,0,0,0,6
215,2022-07-18T03:34:00,0.7,東北東,1.2,東北東,22.9,99.2,0,0,0,6
216,2022-07-18T03:35:00,0.7,東北東,1.2,東北東,22.9,99.2,0,0,0,6
217,2022-07-18T03:36:00,0.7,北東,1.2,東北東,22.9,99.2,0,0,0,6
218,2022-07-18T03:37:00,0.6,北東,1.2,東北東,22.9,99.1,0,0,0,6
219,2022-07-18T03:38:00,0.5,北北東,1.2,東北東,22.9,99.2,0,0,0,6
220,2022-07-18T03:39:00,0.4,北,1.2,東北東,22.9,99.1,0,0,0,6
221,2022-07-18T03:40:00,0.3,北北西,1.2,東北東,22.8,99.1,0,0,0,6
222,2022-07-18T03:41:00,0.2,静穏,1,東,22.9,99.2,0,0,0,6
223,2022-07-18T03:42:00,0.2,静穏,0.8,北東,22.8,99.2,0,0,0,6
224,2022-07-18T03:43:00,0.1,静穏,0.7,北東,22.9,99.2,0,0,0,6
225,2022-07-18T03:44:00,0.1,静穏,0.5,西北西,22.8,99.1,0,0,0,6
226,2022-07-18T03:45:00,0.1,静穏,0.5,西北西,22.7,99.1,0,0,0,6
227,2022-07-18T03:46:00,0.1,静穏,0.5,西北西,22.7,99.1,0,0,0,6
228,2022-07-18T03:47:00,0.1,静穏,0.5,西北西,22.7,99.1,0,0,0,6
229,2022-07-18T03:48:00,0.2,静穏,0.5,西北西,22.7,99.2,0,0,0,6
230,2022-07-18T03:49:00,0.2,静穏,0.8,西南西,22.7,99.2,0,0,0,6
231,2022-07-18T03:50:00,0.3,西北西,0.8,西南西,22.7,99.2,0,0,0,6
232,2022-07-18T03:51:00,0.3,西,0.8,西南西,22.7,99.2,0,0,0,6
233,2022-07-18T03:52:00,0.3,西,0.8,西南西,22.6,99.2,0,0,0,6
234,2022-07-18T03:53:00,0.3,西,0.8,西南西,22.7,99.2,0,0,0,6
235,2022-07-18T03:54:00,0.3,西南西,0.8,西南西,22.7,99.2,0,0,0,6
236,2022-07-18T03:55:00,0.3,西南西,0.8,西南西,22.8,99.2,0,0,0,6
237,2022-07-18T03:56:00,0.3,南西,0.8,西南西,22.8,99.2,0,0,0,6
238,2022-07-18T03:57:00,0.3,南西,0.8,西南西,22.9,99.3,0,0,0,6
239,2022-07-18T03:58:00,0.3,南西,0.8,西南西,22.8,99.3,0,0,0,6
240,2022-07-18T03:59:00,0.2,静穏,0.7,西,22.7,99.2,0,0,0,6
241,2022-07-18T04:00:00,0.2,静穏,0.6,南西,22.8,99.2,0,0,0,6
242,2022-07-18T04:01:00,0.1,静穏,0.6,南西,22.8,99.3,0,0,0,6
243,2022-07-18T04:02:00,0.1,静穏,0.6,南西,22.8,99.3,0,0,0,6
244,2022-07-18T04:03:00,0.1,静穏,0.7,北東,22.8,99.3,0,0,0,6
245,2022-07-18T04:04:00,0.2,静穏,0.9,北東,22.9,99.3,0,0,0,6
246,2022-07-18T04:05:00,0.2,静穏,0.9,北東,22.9,99.3,0,0,0,6
247,2022-07-18T04:06:00,0.3,北東,0.9,北東,22.8,99.3,0,0,0,6
248,2022-07-18T04:07:00,0.3,北東,0.9,北東,22.8,99.3,0,0,0,6
249,2022-07-18T04:08:00,0.4,北東,0.9,北東,22.8,99.2,0,0,0,6
250,2022-07-18T04:09:00,0.4,東北東,0.9,北東,22.9,99.2,0,0,0,6
251,2022-07-18T04:10:00,0.5,東,0.9,北東,22.8,99.3,0,0,0,6
252,2022-07-18T04:11:00,0.5,東,1,東,22.9,99.3,0,0,0,6
253,2022-07-18T04:12:00,0.6,東,1,東,22.9,99.2,0,0,0,6
254,2022-07-18T04:13:00,0.6,東南東,1,東,22.9,99.3,0,0,0,6
255,2022-07-18T04:14:00,0.5,東南東,1,東,22.8,99.2,0,0,0,6
256,2022-07-18T04:15:00,0.5,南東,1,東,22.8,99.2,0,0,0,6
257,2022-07-18T04:16:00,0.5,南東,1,東,22.8,99.2,0,0,0,6
258,2022-07-18T04:17:00,0.4,南東,1,東,22.7,99.2,0,0,0,6
259,2022-07-18T04:18:00,0.4,南東,1,東,22.8,99.3,0,0,0,6
260,2022-07-18T04:19:00,0.4,南東,1,東,22.8,99.3,0,0,0,6
261,2022-07-18T04:20:00,0.3,南東,1,東,22.8,99.3,0,0,0,6
262,2022-07-18T04:21:00,0.3,南東,0.9,南東,22.9,99.3,0,0,0,6
263,2022-07-18T04:22:00,0.2,静穏,0.7,南南東,22.8,99.2,0,0,0,6
264,2022-07-18T04:23:00,0.2,静穏,0.7,南南東,22.6,99.2,0,0,0,6
265,2022-07-18T04:24:00,0.2,静穏,0.7,南南東,22.6,99.2,0,0,0,6
266,2022-07-18T04:25:00,0.2,静穏,0.7,南南東,22.6,99.2,0,0,0,6
267,2022-07-18T04:26:00,0.2,静穏,0.6,北北東,22.6,99.2,0,0,0,6
268,2022-07-18T04:27:00,0.2,静穏,0.6,北北東,22.5,99.2,0,0,0,6
269,2022-07-18T04:28:00,0.2,静穏,0.6,北北東,22.5,99.2,0,0,0,6
270,2022-07-18T04:29:00,0.2,静穏,0.6,北北東,22.5,99.2,0,0,0,6
271,2022-07-18T04:30:00,0.2,静穏,0.6,北北東,22.6,99.2,0,0,0,6
272,2022-07-18T04:31:00,0.2,静穏,0.6,北北東,22.6,99.2,0,0,0,6
273,2022-07-18T04:32:00,0.2,静穏,0.6,北北東,22.5,99.2,0,0,0,6
274,2022-07-18T04:33:00,0.2,静穏,0.6,北北東,22.6,99.2,0,0,0,6
275,2022-07-18T04:34:00,0.2,静穏,0.5,北北東,22.6,99.3,0,0,0,6
276,2022-07-18T04:35:00,0.2,静穏,0.6,北北東,22.7,99.3,0,0,0,6
277,2022-07-18T04:36:00,0.3,北,0.6,北北東,22.7,99.3,0,0,0,6
278,2022-07-18T04:37:00,0.3,北,0.6,北北東,22.6,99.3,0,0,0,6
279,2022-07-18T04:38:00,0.3,北,0.6,北北東,22.6,99.3,0,0,0,6
280,2022-07-18T04:39:00,0.3,北,0.6,北北東,22.7,99.3,0,0,0,6
281,2022-07-18T04:40:00,0.3,北,0.6,北北東,22.7,99.3,0,0,0,6
282,2022-07-18T04:41:00,0.3,北,0.6,北北東,22.7,99.3,0,0,0,6
283,2022-07-18T04:42:00,0.3,北,0.6,北北東,22.7,99.2,0,0,0,6
284,2022-07-18T04:43:00,0.3,北,0.6,北北東,22.7,99.3,0,0,0,6
285,2022-07-18T04:44:00,0.3,北,0.6,北北東,22.7,99.3,0,0,0,6
286,2022-07-18T04:45:00,0.3,北,0.7,北北西,22.6,99.3,0,0,0,6
287,2022-07-18T04:46:00,0.3,北,0.8,北西,22.7,99.3,0,0,0,6
288,2022-07-18T04:47:00,0.3,北北西,0.8,北西,22.7,99.3,0,0,0,6
289,2022-07-18T04:48:00,0.3,北北西,0.8,北西,22.6,99.3,0,0,0,6
290,2022-07-18T04:49:00,0.3,北北西,0.8,北西,22.6,99.2,0,0,0,6
291,2022-07-18T04:50:00,0.3,北北西,0.8,北西,22.6,99.2,0,0,0,6
292,2022-07-18T04:51:00,0.3,北北西,0.8,北西,22.7,99.3,0,0,0,6
293,2022-07-18T04:52:00,0.3,北西,0.8,北西,22.6,99.3,0,0,0,6
294,2022-07-18T04:53:00,0.3,北北西,0.8,北西,22.7,99.3,0,0,0,6
295,2022-07-18T04:54:00,0.3,北北西,0.8,北西,22.7,99.3,0,0,0,6
296,2022-07-18T04:55:00,0.3,北北西,0.8,北西,22.8,99.3,0,0,0,6
297,2022-07-18T04:56:00,0.2,静穏,0.7,北,22.8,99.3,0,0,0,6
298,2022-07-18T04:57:00,0.3,北,0.7,北,22.7,99.3,0,0,0,6
299,2022-07-18T04:58:00,0.3,北,0.8,北北東,22.6,99.3,0,0,0,6
300,2022-07-18T04:59:00,0.4,北北東,0.8,北北東,22.7,99.3,0,0,0,6
301,2022-07-18T05:00:00,0.4,北北東,0.9,東北東,22.7,99.3,0,0,0,6
302,2022-07-18T05:01:00,0.5,北東,1.3,東北東,22.8,99.3,0,0,0,6
303,2022-07-18T05:02:00,0.6,北東,1.3,東北東,22.8,99.3,0,0,0,6
304,2022-07-18T05:03:00,0.7,北東,1.3,東北東,22.8,99.3,0,0,0,6
305,2022-07-18T05:04:00,0.7,北東,1.3,東北東,22.8,99.3,0,0,0,6
306,2022-07-18T05:05:00,0.8,東北東,1.3,東北東,22.8,99.3,0,0,0,6
307,2022-07-18T05:06:00,0.8,東北東,1.5,東,22.8,99.3,0,0,0,6
308,2022-07-18T05:07:00,0.8,東,1.5,東,22.8,99.3,0,0,0,6
309,2022-07-18T05:08:00,0.8,東,1.5,東,22.8,99.3,0,0,0,6
310,2022-07-18T05:09:00,0.8,東南東,1.5,東,22.7,99.3,0,0,0,6
311,2022-07-18T05:10:00,0.7,東南東,1.5,東,22.7,99.2,0,0,0,6
312,2022-07-18T05:11:00,0.6,東南東,1.5,東,22.6,99.2,0,0,0,6
313,2022-07-18T05:12:00,0.6,南東,1.5,東,22.6,99.3,0,0,0,6
314,2022-07-18T05:13:00,0.5,南東,1.5,東,22.6,99.2,0,0,0,6
315,2022-07-18T05:14:00,0.4,南東,1.5,東,22.8,99.3,0,0,0,6
316,2022-07-18T05:15:00,0.3,南東,1.5,東,22.7,99.3,0,0,0,6
317,2022-07-18T05:16:00,0.2,静穏,1.1,東,22.8,99.3,0,0,0,6
318,2022-07-18T05:17:00,0.2,静穏,1.1,東,22.8,99.3,0,0,0,6
319,2022-07-18T05:18:00,0.1,静穏,0.4,南,22.8,99.3,0,0,0,6
320,2022-07-18T05:19:00,0.1,静穏,0.4,南,22.8,99.3,0,0,0,6
321,2022-07-18T05:20:00,0.1,静穏,0.4,南,22.8,99.3,0,0,0,6
322,2022-07-18T05:21:00,0.1,静穏,0.4,南,22.8,99.3,0,0,0,6
323,2022-07-18T05:22:00,0.1,静穏,0.6,東北東,22.8,99.3,0,0,0,6
324,2022-07-18T05:23:00,0.1,静穏,0.6,東北東,22.9,99.3,0,0,0,6
325,2022-07-18T05:24:00,0.2,静穏,0.7,東北東,22.9,99.3,0,0,0,6
326,2022-07-18T05:25:00,0.2,静穏,0.7,東北東,22.9,99.3,0,0,0,6
327,2022-07-18T05:26:00,0.2,静穏,0.7,東北東,22.8,99.2,0,0,0,6
328,2022-07-18T05:27:00,0.2,静穏,0.7,東北東,22.8,99.2,0,0,0,6
329,2022-07-18T05:28:00,0.3,北東,0.7,東北東,22.7,99.2,0,0,0,6
330,2022-07-18T05:29:00,0.3,北北東,0.7,東北東,22.7,99.2,0,0,0,6
331,2022-07-18T05:30:00,0.3,北北東,0.7,東北東,22.8,99.2,0,0,0,6
332,2022-07-18T05:31:00,0.3,北北東,0.7,東北東,22.8,99.2,0,0,0,6
333,2022-07-18T05:32:00,0.3,北北東,0.7,東北東,22.9,99.3,0,0,0,6
334,2022-07-18T05:33:00,0.3,北,0.7,東北東,22.8,99.3,0,0,0,6
335,2022-07-18T05:34:00,0.2,静穏,0.4,北北東,22.8,99.2,0,0,0,6
336,2022-07-18T05:35:00,0.2,静穏,0.4,北北東,22.8,99.2,0,0,0,6
337,2022-07-18T05:36:00,0.2,静穏,0.4,北北東,22.7,99.2,0,0,0,6
338,2022-07-18T05:37:00,0.2,静穏,0.4,北北東,22.7,99.2,0,0,0,6
339,2022-07-18T05:38:00,0.2,静穏,0.4,北北東,22.9,99.3,0,0,0,6
340,2022-07-18T05:39:00,0.2,静穏,0.5,北北東,22.9,99.3,0,0,0,6
341,2022-07-18T05:40:00,0.3,北,0.6,東北東,22.9,99.3,0,0,0,6
342,2022-07-18T05:41:00,0.3,北,1.1,東北東,22.9,99.3,0,0,0,6
343,2022-07-18T05:42:00,0.3,北,1.1,東北東,23,99.3,0,0,0,6
344,2022-07-18T05:43:00,0.4,北北東,1.1,東北東,23,99.3,0,0,0,6
345,2022-07-18T05:44:00,0.4,北東,1.1,東北東,23,99.3,0,0,0,6
346,2022-07-18T05:45:00,0.5,北東,1.1,東北東,23,99.3,0,0,0,6
347,2022-07-18T05:46:00,0.5,東北東,1.1,東北東,23,99.2,0,0,0,6
348,2022-07-18T05:47:00,0.5,東北東,1.3,北北東,22.9,99.2,0,0,0,6
349,2022-07-18T05:48:00,0.6,東北東,1.6,北北東,22.8,99.2,0,0,0,6
350,2022-07-18T05:49:00,0.8,東北東,2.1,北北東,22.7,99.1,0,0,0,6
351,2022-07-18T05:50:00,0.8,北東,2.1,北北東,22.8,99.2,0,0,0,6
352,2022-07-18T05:51:00,0.8,北東,2.1,北北東,22.7,99.2,0,0,0,6
353,2022-07-18T05:52:00,0.8,北東,2.1,北北東,22.7,99.2,0,0,0,6
354,2022-07-18T05:53:00,0.8,北北東,2.1,北北東,22.7,99.2,0,0,0,6
355,2022-07-18T05:54:00,0.8,北北東,2.1,北北東,22.8,99.2,0,0,0,6
356,2022-07-18T05:55:00,0.8,北北東,2.1,北北東,22.8,99.3,0,0,0,6
357,2022-07-18T05:56:00,0.8,北,2.1,北北東,22.8,99.3,0,0,0,6
358,2022-07-18T05:57:00,0.8,北,2.1,北北東,22.8,99.3,0,0,0,6
359,2022-07-18T05:58:00,0.7,北,2.1,北北東,22.7,99.2,0,0,0,6
360,2022-07-18T05:59:00,0.6,北,1.7,北北東,22.8,99.2,0,0,0,6
361,2022-07-18T06:00:00,0.5,北,1.7,北北東,22.7,99.2,0,0,0,6
362,2022-07-18T06:01:00,0.4,北北西,1,北北東,22.6,99.2,0,0,0,6
363,2022-07-18T06:02:00,0.4,北北西,1,北北東,22.7,99.2,0,0,0,6
364,2022-07-18T06:03:00,0.4,北,1,北北東,22.8,99.2,0,0,0,6
365,2022-07-18T06:04:00,0.5,北北東,1,北北東,22.8,99.3,0,0,0,6
366,2022-07-18T06:05:00,0.5,北東,1.4,東,22.9,99.3,0,0,0,6
367,2022-07-18T06:06:00,0.5,北東,1.4,東,22.8,99.3,0,0,0,6
368,2022-07-18T06:07:00,0.6,東北東,1.4,東,22.8,99.3,0,0,0,6
369,2022-07-18T06:08:00,0.6,東北東,1.4,東,22.8,99.3,0,0,0,6
370,2022-07-18T06:09:00,0.7,東北東,1.4,東,22.8,99.3,0,0,0,6
371,2022-07-18T06:10:00,0.7,東北東,1.4,東,22.8,99.3,0,0,0,6
372,2022-07-18T06:11:00,0.8,東北東,1.5,東,22.9,99.3,0,0,0,6
373,2022-07-18T06:12:00,0.9,東北東,1.5,東,22.8,99.2,0,0,0,6
374,2022-07-18T06:13:00,0.8,東,1.5,東,22.8,99.2,0,0,0,6
375,2022-07-18T06:14:00,0.8,東,1.5,東,22.8,99.2,0,0,0,6
376,2022-07-18T06:15:00,0.8,東南東,1.5,東,22.9,99.3,0,0,0,6
377,2022-07-18T06:16:00,0.7,東南東,1.5,東,22.9,99.2,0,0,0,6
378,2022-07-18T06:17:00,0.6,東南東,1.5,東,22.9,99.3,0,0,0,6
379,2022-07-18T06:18:00,0.6,東南東,1.5,東,22.9,99.3,0,0,0,6
380,2022-07-18T06:19:00,0.6,東南東,1.5,東,23,99.3,0,0,0,6
381,2022-07-18T06:20:00,0.5,東南東,1.5,東,23,99.3,0,0,0,6
382,2022-07-18T06:21:00,0.4,南東,1,南東,23.1,99.3,0,0,0,6
383,2022-07-18T06:22:00,0.3,南東,0.8,東南東,23,99.3,0,0,0,6
384,2022-07-18T06:23:00,0.3,南東,0.8,東南東,23.1,99.3,0,0,0,6
385,2022-07-18T06:24:00,0.3,南南東,0.6,東,23,99.3,0,0,0,6
386,2022-07-18T06:25:00,0.3,南,0.6,東,23,99.2,0,0,0,6
387,2022-07-18T06:26:00,0.3,西南西,0.6,東,23,99.2,0,0,0,6
388,2022-07-18T06:27:00,0.3,北西,0.6,東,23,99.2,0,0,0,6
389,2022-07-18T06:28:00,0.2,静穏,0.5,北北西,23,99.2,0,0,0,6
390,2022-07-18T06:29:00,0.3,西,0.8,南西,23.1,99.2,0,0,0,6
391,2022-07-18T06:30:00,0.3,西,1,南西,23,99.2,0,0,0,6
392,2022-07-18T06:31:00,0.4,西,1,南西,23.1,99.2,0,0,0,6
393,2022-07-18T06:32:00,0.4,西,1,南西,23.1,99.3,0,0,0,6
394,2022-07-18T06:33:00,0.4,西北西,1,南西,23.1,99.2,0,0,0,6
395,2022-07-18T06:34:00,0.4,西北西,1,南西,23.2,99.3,0,0,0,6
396,2022-07-18T06:35:00,0.4,西北西,1,南西,23.1,99.3,0,0,0,6
397,2022-07-18T06:36:00,0.4,西北西,1,南西,23.1,99.2,0,0,0,6
398,2022-07-18T06:37:00,0.4,西,1,南西,23.2,99.3,0,0,0,6
399,2022-07-18T06:38:00,0.4,西,1,南西,23.3,99.3,0,0,0,6
400,2022-07-18T06:39:00,0.4,西,1,南西,23.2,99.3,0,0,0,6
401,2022-07-18T06:40:00,0.4,西北西,0.8,北西,23.2,99.2,0,0,0,6
402,2022-07-18T06:41:00,0.3,北西,0.8,北西,23.2,99.2,0,0,0,6
403,2022-07-18T06:42:00,0.3,北西,0.8,北西,23.2,99.2,0,0,0,6
404,2022-07-18T06:43:00,0.3,北西,0.8,北西,23.2,99.2,0,0,0,6
405,2022-07-18T06:44:00,0.3,北北西,0.8,北西,23.1,99.2,0,0,0,6
406,2022-07-18T06:45:00,0.3,北北西,0.7,北北東,23.2,99.2,0,0,0,6
407,2022-07-18T06:46:00,0.3,北,0.8,北東,23.2,99.2,0,0,0,6
408,2022-07-18T06:47:00,0.3,北,0.8,北東,23.2,99.2,0,0,0,6
409,2022-07-18T06:48:00,0.4,北,0.8,北東,23.2,99.2,0,0,0,6
410,2022-07-18T06:49:00,0.4,北北西,0.8,北東,23.1,99.2,0,0,0,6
411,2022-07-18T06:50:00,0.4,北北西,0.8,北東,23.1,99.1,0,0,0,6
412,2022-07-18T06:51:00,0.4,北北西,0.8,北東,23.2,99.2,0,0,0,6
413,2022-07-18T06:52:00,0.4,北北西,0.8,北東,23.2,99.2,0,0,0,6
414,2022-07-18T06:53:00,0.4,北,0.9,北,23.2,99.2,0,0,0,6
415,2022-07-18T06:54:00,0.5,北,1,北北東,23.2,99.1,0,0,0,6
416,2022-07-18T06:55:00,0.5,北,1,北北東,23.3,99.2,0,0,0,6
417,2022-07-18T06:56:00,0.5,北,1.7,北東,23.3,99.2,0,0,0,6
418,2022-07-18T06:57:00,0.6,北,1.7,北東,23.2,99.1,0,0,0,6
419,2022-07-18T06:58:00,0.6,北北東,1.7,北東,23.2,99.1,0,0,0,6
420,2022-07-18T06:59:00,0.7,北北東,1.7,北東,23.2,99,0,0,0,6
421,2022-07-18T07:00:00,0.7,北北東,1.7,北東,23.2,99.1,0,0,0,6
422,2022-07-18T07:01:00,0.7,北北東,1.7,北東,23.3,99.1,0,0,0,6
423,2022-07-18T07:02:00,0.7,北北東,1.7,北東,23.3,99.1,0,0,0,6
424,2022-07-18T07:03:00,0.7,北北東,1.7,北東,23.2,99.1,0,0,0,6
425,2022-07-18T07:04:00,0.7,北北東,1.7,北東,23.2,98.9,0,0,0,6
426,2022-07-18T07:05:00,0.7,北北東,1.7,北東,23.2,99,0,0,0,6
427,2022-07-18T07:06:00,0.6,北北東,1.6,北北東,23.3,98.9,0,0,0,6
428,2022-07-18T07:07:00,0.5,北,1.5,北北東,23.2,98.9,0,0,0,6
429,2022-07-18T07:08:00,0.4,北,1.2,北東,23.2,98.9,0,0,0,6